Koksijde, Belgium

4:16 PM CEST on August 16, 2017 (GMT +0200)
Koksijde Air Base

Weather History for EBFN - January, 2013

Change the Weather History Date:

Monday, January 14, 2013

  Actual Average Record
Temperature  
Mean Temperature 28 °F -  
Max Temperature 35 °F 42 °F 53 °F (2011)
Min Temperature 22 °F 36 °F 22 °F (2013)
Degree Days  
Heating Degree Days 36    
Moisture  
Dew Point 25 °F    
Average Humidity 87    
Maximum Humidity 100    
Minimum Humidity 63    
Precipitation  
Precipitation 0.12 in - - ()
Sea Level Pressure  
Sea Level Pressure 29.86 in    
Wind  
Wind Speed 7 mph ()    
Max Wind Speed 20 mph    
Max Gust Speed -    
Visibility 4.2 miles    
Events Snow    
Averages and records for this station are not official NWS values.
T = Trace of Precipitation, MM = Missing Value Source: Averaged Metar Reports

Daily Weather History Graph

Daily Weather History Graph

Search for Another Location

Airport or City:

Trip Planner

Search our weather history database for the weather conditions in past years. The results will help you decide how hot, cold, wet, or windy it might be!

Date:

Astronomy

Jan. 14, 2013 Rise Set
Actual Time 8:47 AM CET 5:10 PM CET
Civil Twilight 8:09 AM CET 5:48 PM CET
Nautical Twilight 7:27 AM CET 6:29 PM CET
Astronomical Twilight 6:47 AM CET 7:09 PM CET
Moon 9:46 AM CET (1/14) 9:07 PM CET (1/14)
Length of Visible Light 9h 39m
Length of Day
8h 23m
Waxing Crescent, 9% of the Moon is Illuminated
Jan 14
Waxing Crescent
Jan 19
First Quarter
Jan 27
Full
Feb 3
Last Quarter
Feb 10
New

Hourly Weather History & Observations

Time (CET) Temp. Windchill Dew Point Humidity Pressure Visibility Wind Dir Wind Speed Gust Speed Precip Events Conditions
12:25 AM 24.8 °F - 23.0 °F 93% 30.06 in 5.0 mi Calm Calm - N/A   Partly Cloudy
12:55 AM 24.8 °F - 23.0 °F 93% 30.06 in 5.6 mi Calm Calm - N/A   Partly Cloudy
1:00 AM 25 °F - 23 °F 91% 30.09 in 6 mi Calm Calm - -   Scattered Clouds
1:25 AM 24.8 °F - 23.0 °F 93% 30.06 in 5.6 mi Calm Calm - N/A   Partly Cloudy
1:55 AM 24.8 °F - 23.0 °F 93% 30.06 in 5.0 mi Variable 1.2 mph - N/A   Partly Cloudy
2:25 AM 24.8 °F 19.1 °F 23.0 °F 93% 30.06 in 5.0 mi West 4.6 mph - N/A   Partly Cloudy
2:28 AM 24.8 °F 19.1 °F 23.0 °F 93% 30.06 in 4.3 mi West 4.6 mph - N/A   Partly Cloudy
2:55 AM 23.0 °F - 23.0 °F 100% 30.06 in 4.3 mi Variable 1.2 mph - N/A   Partly Cloudy
3:25 AM 23.0 °F 18.4 °F 21.2 °F 93% 30.06 in 4.3 mi Variable 3.5 mph - N/A   Partly Cloudy
3:55 AM 24.8 °F - 23.0 °F 93% 30.06 in 4.3 mi Variable 2.3 mph - N/A   Partly Cloudy
4:00 AM 24 °F - 22 °F 88% 30.07 in 4 mi 2.2 mph - -   Scattered Clouds
4:25 AM 23.0 °F - 21.2 °F 93% 30.04 in 4.3 mi Variable 2.3 mph - N/A   Partly Cloudy
4:55 AM 23.0 °F 18.4 °F 21.2 °F 93% 30.04 in 3.7 mi Variable 3.5 mph - N/A   Partly Cloudy
5:25 AM 23.0 °F 17.0 °F 21.2 °F 93% 30.04 in 4.3 mi SW 4.6 mph - N/A   Scattered Clouds
5:55 AM 23.0 °F 15.8 °F 21.2 °F 93% 30.04 in 4.3 mi SW 5.8 mph - N/A   Scattered Clouds
6:25 AM 23.0 °F 17.0 °F 21.2 °F 93% 30.01 in 4.3 mi SSW 4.6 mph - N/A   Mostly Cloudy
6:55 AM 23.0 °F 17.0 °F 21.2 °F 93% 30.01 in 4.3 mi SSW 4.6 mph - N/A   Mostly Cloudy
7:00 AM 24 °F - 22 °F 90% 30.02 in 4 mi WSW 6.7 mph - -   Scattered Clouds
7:25 AM 24.8 °F 19.1 °F 23.0 °F 93% 30.01 in 4.3 mi SSW 4.6 mph - N/A   Mostly Cloudy
7:55 AM 24.8 °F 17.9 °F 23.0 °F 93% 30.01 in 4.3 mi SSW 5.8 mph - N/A   Mostly Cloudy
8:25 AM 26.6 °F 20.0 °F 23.0 °F 86% 30.01 in 4.3 mi SSW 5.8 mph - N/A   Mostly Cloudy
8:52 AM 26.6 °F 19.1 °F 23.0 °F 86% 30.01 in 5.0 mi SW 6.9 mph - N/A   Mostly Cloudy
8:55 AM 26.6 °F 19.1 °F 23.0 °F 86% 30.01 in 5.0 mi SW 6.9 mph - N/A   Mostly Cloudy
9:21 AM 26.6 °F 18.2 °F 23.0 °F 86% 29.98 in 5.6 mi SW 8.1 mph - N/A   Mostly Cloudy
9:25 AM 26.6 °F 18.2 °F 23.0 °F 86% 29.98 in 5.6 mi SW 8.1 mph - N/A   Mostly Cloudy
9:55 AM 28.4 °F 22.2 °F 24.8 °F 86% 29.98 in 5.6 mi SSW 5.8 mph - N/A   Mostly Cloudy
10:55 AM 28.4 °F 20.4 °F 26.6 °F 93% 29.98 in 5.6 mi SSW 8.1 mph - N/A   Mostly Cloudy
11:11 AM 30.2 °F 22.6 °F 26.6 °F 86% 29.98 in 5.6 mi SSW 8.1 mph - N/A Snow Light Snow
11:25 AM 30.2 °F 21.9 °F 26.6 °F 86% 29.98 in 5.6 mi SSW 9.2 mph - N/A   Mostly Cloudy
11:55 AM 30.2 °F 22.6 °F 24.8 °F 80% 29.95 in 5.6 mi SSW 8.1 mph - N/A   Mostly Cloudy
12:25 PM 30.2 °F 22.6 °F 24.8 °F 80% 29.95 in 5.6 mi SSW 8.1 mph - N/A   Mostly Cloudy
12:55 PM 30.2 °F 22.6 °F 26.6 °F 86% 29.92 in 6.2 mi SSW 8.1 mph - N/A   Mostly Cloudy
1:25 PM 32.0 °F 23.6 °F 26.6 °F 80% 29.92 in 6.2 mi SSW 10.4 mph - N/A   Mostly Cloudy
1:52 PM 32.0 °F 23.0 °F 24.8 °F 75% 29.89 in 5.0 mi SSW 11.5 mph - N/A Snow Light Snow
1:55 PM 32.0 °F 23.0 °F 26.6 °F 80% 29.89 in 5.0 mi SSW 11.5 mph - N/A Snow Light Snow
2:06 PM 32.0 °F 23.0 °F 26.6 °F 80% 29.89 in 5.0 mi SSW 11.5 mph - N/A Snow Light Snow
2:07 PM 32.0 °F 23.0 °F 26.6 °F 80% 29.89 in 5.0 mi SSW 11.5 mph - N/A Snow Light Snow
2:25 PM 32.0 °F 23.6 °F 24.8 °F 75% 29.89 in 6.2 mi South 10.4 mph - N/A   Mostly Cloudy
2:47 PM 32.0 °F 23.6 °F 24.8 °F 75% 29.89 in 5.0 mi South 10.4 mph - N/A Snow Light Snow
2:55 PM 32.0 °F 23.0 °F 24.8 °F 75% 29.86 in 5.0 mi South 11.5 mph - N/A Snow Light Snow
3:25 PM 32.0 °F 23.6 °F 24.8 °F 75% 29.86 in 5.0 mi South 10.4 mph - N/A Snow Light Snow
3:55 PM 32.0 °F 22.5 °F 24.8 °F 75% 29.83 in 6.2 mi South 12.7 mph - N/A   Mostly Cloudy
4:00 PM 32 °F - 24 °F 63% 29.85 in 6 mi South 13.4 mph - - Snow Light Snow
4:25 PM 32.0 °F 22.1 °F 24.8 °F 75% 29.83 in 5.0 mi South 13.8 mph - N/A Snow Light Snow
4:55 PM 32.0 °F 22.5 °F 23.0 °F 69% 29.80 in 6.2 mi South 12.7 mph - N/A   Mostly Cloudy
5:25 PM 32.0 °F 22.1 °F 23.0 °F 69% 29.80 in 6.2 mi South 13.8 mph - N/A   Mostly Cloudy
5:33 PM 32.0 °F 22.1 °F 24.8 °F 75% 29.77 in 4.3 mi South 13.8 mph - N/A Snow Snow Grains
5:55 PM 30.2 °F 18.5 °F 26.6 °F 86% 29.77 in 4.3 mi South 17.3 mph - N/A Snow Snow Grains
6:18 PM 30.2 °F 19.3 °F 26.6 °F 86% 29.74 in 3.1 mi South 15.0 mph - N/A Snow Light Snow
6:25 PM 30.2 °F 19.3 °F 26.6 °F 86% 29.74 in - South 15.0 mph - N/A Snow Light Snow
6:55 PM 30.2 °F 18.9 °F 26.6 °F 86% 29.71 in 1.3 mi South 16.1 mph - N/A Snow Snow
7:00 PM 29 °F - 27 °F 89% 29.74 in 1 mi South 15.7 mph - - Snow Snow
7:00 PM 30.2 °F 18.9 °F 28.4 °F 93% 29.71 in 0.9 mi South 16.1 mph - N/A Snow Snow
7:11 PM 28.4 °F 17.0 °F 28.4 °F 100% 29.71 in 0.4 mi South 15.0 mph - N/A Snow Snow
7:25 PM 28.4 °F 16.2 °F 28.4 °F 100% 29.71 in 0.4 mi SSE 17.3 mph - N/A Snow Snow
7:55 PM 30.2 °F 17.8 °F 28.4 °F 93% 29.68 in 0.4 mi SSE 19.6 mph - N/A Snow Snow
8:25 PM 28.4 °F 16.2 °F 28.4 °F 100% 29.65 in 0.2 mi SSE 17.3 mph - N/A Snow Snow
8:55 PM 30.2 °F 18.1 °F 28.4 °F 93% 29.62 in 0.4 mi SSE 18.4 mph - N/A Snow Snow
9:10 PM 30.2 °F 18.5 °F 28.4 °F 93% 29.62 in 0.7 mi SSE 17.3 mph - N/A Snow Snow
9:25 PM 30.2 °F 18.5 °F 28.4 °F 93% 29.59 in 0.9 mi SSE 17.3 mph - N/A Snow Snow
9:41 PM 30.2 °F 18.5 °F 28.4 °F 93% 29.59 in 1.0 mi SSE 17.3 mph - N/A Snow Snow
9:55 PM 30.2 °F 18.9 °F 30.2 °F 100% 29.59 in 1.0 mi South 16.1 mph - N/A Snow Light Snow
10:00 PM 30 °F - 29 °F 97% 29.60 in 1 mi South 15.7 mph - - Snow Snow
10:25 PM 30.2 °F 19.8 °F 30.2 °F 100% 29.56 in 3.7 mi South 13.8 mph - N/A   Mostly Cloudy
10:35 PM 30.2 °F 19.8 °F 30.2 °F 100% 29.56 in 3.7 mi South 13.8 mph - N/A   Mostly Cloudy
10:55 PM 32.0 °F 22.5 °F 30.2 °F 93% 29.56 in 6.2 mi South 12.7 mph - N/A   Mostly Cloudy
11:21 PM 33.8 °F 23.2 °F 28.4 °F 81% 29.53 in 6.2 mi West 17.3 mph - N/A   Mostly Cloudy
11:25 PM 33.8 °F 22.8 °F 28.4 °F 81% 29.53 in 6.2 mi West 18.4 mph - N/A   Mostly Cloudy
11:42 PM 35.6 °F 25.2 °F 28.4 °F 75% 29.53 in 6.2 mi WNW 18.4 mph - N/A   Mostly Cloudy
11:55 PM 35.6 °F 25.5 °F 28.4 °F 75% 29.53 in 6.2 mi West 17.3 mph - N/A   Mostly Cloudy